Weather History for Charleston, SC

Change the Weather History Date:

Friday, June 6, 2014

  Actual Average (KCHS) Record (KCHS)
Temperature  
Mean Temperature 80 °F 77 °F  
Max Temperature 86 °F 87 °F 100 °F (1943)
Min Temperature 73 °F 68 °F 53 °F (1946)
Degree Days  
Heating Degree Days 0 0  
Month to date heating degree days 0  
Since 1 June heating degree days 0  
Since 1 July heating degree days 1975  
Cooling Degree Days 14 12  
Month to date cooling degree days 71  
Year to date cooling degree days 433  
Since 1 June cooling degree days 71  
Growing Degree Days 30 (Base 50)    
Moisture  
Dew Point 72 °F    
Average Humidity 82    
Maximum Humidity 94    
Minimum Humidity 62    
Precipitation  
Precipitation 0.00 in 0.17 in 4.91 in (1997)
Month to date precipitation 0.92  
Year to date precipitation 17.23  
Sea Level Pressure  
Sea Level Pressure 29.89 in    
Wind  
Wind Speed 6 mph (SW)    
Max Wind Speed 12 mph    
Max Gust Speed 18 mph    
Visibility 9 miles    
Events Rain    
T = Trace of Precipitation, MM = Missing Value Source: NWS Daily Summary

Daily Weather History Graph

Daily Weather History Graph

Search for Another Location

Airport:

Trip Planner

Search our weather history database for the weather conditions in past years. The results will help you decide how hot, cold, wet, or windy it might be!

Date:

Astronomy

Jun. 06, 2014 Rise Set
Actual Time 6:12 AM EDT 8:25 PM EDT
Civil Twilight 5:43 AM EDT 8:53 PM EDT
Nautical Twilight 5:09 AM EDT 9:28 PM EDT
Astronomical Twilight 4:31 AM EDT 10:06 PM EDT
Moon 2:03 PM EDT (6/6) 1:41 AM EDT (6/6)
Length of Visible Light 15h 10m
Length of Day
14h 13m
First Quarter, 58% of the Moon is Illuminated
Jun 6
First Quarter
Jun 13
Full
Jun 19
Last Quarter
Jun 27
New
Jul 5
First Quarter

Hourly Weather History & Observations

Time (EDT) Temp. Heat Index Dew Point Humidity Pressure Visibility Wind Dir Wind Speed Gust Speed Precip Events Conditions
12:15 AM 78.8 °F - 69.8 °F 74% 29.89 in 10.0 mi SSW 11.5 mph - 0.00 in   Clear
12:35 AM 78.8 °F - 71.6 °F 78% 29.88 in 10.0 mi SW 10.4 mph - 0.00 in   Clear
12:55 AM 78.8 °F - 71.6 °F 78% 29.88 in 10.0 mi SW 9.2 mph - 0.00 in   Clear
1:15 AM 78.8 °F - 71.6 °F 78% 29.86 in 10.0 mi SSW 9.2 mph - 0.00 in   Clear
1:35 AM 78.8 °F - 71.6 °F 78% 29.85 in 10.0 mi SSW 9.2 mph 17.3 mph 0.00 in   Clear
1:55 AM 78.8 °F - 71.6 °F 78% 29.85 in 10.0 mi SSW 10.4 mph - 0.00 in   Clear
2:15 AM 78.8 °F - 71.6 °F 78% 29.85 in 10.0 mi SSW 6.9 mph - 0.00 in   Clear
2:35 AM 78.8 °F - 71.6 °F 78% 29.85 in 10.0 mi SW 10.4 mph - 0.00 in   Clear
2:55 AM 78.8 °F - 71.6 °F 78% 29.85 in 10.0 mi SSW 10.4 mph - 0.00 in   Clear
3:15 AM 78.8 °F - 71.6 °F 78% 29.85 in 9.0 mi SW 9.2 mph - 0.00 in   Clear
3:35 AM 78.8 °F - 73.4 °F 83% 29.85 in 8.0 mi SW 11.5 mph - 0.00 in   Clear
3:55 AM 78.8 °F - 73.4 °F 83% 29.85 in 8.0 mi SW 9.2 mph - 0.00 in   Partly Cloudy
4:15 AM 78.8 °F - 73.4 °F 83% 29.85 in 8.0 mi Calm Calm - 0.00 in   Clear
4:35 AM 78.8 °F - 73.4 °F 83% 29.85 in 8.0 mi Calm Calm - 0.00 in   Mostly Cloudy
4:55 AM 78.8 °F - 73.4 °F 83% 29.84 in 8.0 mi Calm Calm - 0.00 in   Scattered Clouds
5:15 AM 77.0 °F - 73.4 °F 89% 29.85 in 7.0 mi Calm Calm - 0.00 in   Scattered Clouds
5:35 AM 77.0 °F - 73.4 °F 89% 29.85 in 8.0 mi Calm Calm - 0.00 in   Overcast
5:55 AM 78.8 °F - 73.4 °F 83% 29.87 in 10.0 mi West 9.2 mph - 0.00 in   Mostly Cloudy
6:15 AM 78.8 °F - 71.6 °F 78% 29.87 in 10.0 mi WNW 8.1 mph - 0.00 in   Partly Cloudy
6:35 AM 78.8 °F - 71.6 °F 78% 29.89 in 10.0 mi West 6.9 mph - 0.00 in   Scattered Clouds
6:55 AM 77.0 °F - 71.6 °F 83% 29.89 in 10.0 mi WNW 8.1 mph - 0.00 in   Partly Cloudy
7:15 AM 77.0 °F - 69.8 °F 78% 29.91 in 10.0 mi West 11.5 mph 17.3 mph 0.00 in   Mostly Cloudy
7:35 AM 75.2 °F - 69.8 °F 83% 29.91 in 10.0 mi WNW 9.2 mph 18.4 mph 0.00 in   Mostly Cloudy
7:55 AM 75.2 °F - 69.8 °F 83% 29.91 in 10.0 mi West 9.2 mph - 0.00 in   Mostly Cloudy
8:15 AM 75.2 °F - 69.8 °F 83% 29.91 in 10.0 mi West 6.9 mph - 0.00 in   Mostly Cloudy
8:35 AM 75.2 °F - 68.0 °F 78% 29.92 in 10.0 mi West 10.4 mph - 0.00 in   Scattered Clouds
8:55 AM 73.4 °F - 69.8 °F 88% 29.93 in 5.0 mi WSW 3.5 mph - 0.00 in Rain Light Rain
9:15 AM 73.4 °F - 69.8 °F 88% 29.94 in 3.0 mi Calm Calm - 0.00 in Rain Light Rain
9:35 AM 73.4 °F - 71.6 °F 94% 29.93 in 3.0 mi Calm Calm - 0.00 in Rain Light Rain
9:55 AM 73.4 °F - 71.6 °F 94% 29.93 in 2.5 mi Calm Calm - 0.00 in Rain Rain
10:15 AM 73.4 °F - 71.6 °F 94% 29.93 in 1.8 mi Calm Calm - 0.00 in Rain Rain
10:35 AM 73.4 °F - 71.6 °F 94% 29.94 in 4.0 mi Calm Calm - 0.00 in Rain Light Rain
10:55 AM 73.4 °F - 71.6 °F 94% 29.94 in 5.0 mi Calm Calm - 0.00 in Rain Light Rain
11:15 AM 73.4 °F - 71.6 °F 94% 29.92 in 5.0 mi Calm Calm - 0.00 in Rain Light Rain
11:35 AM 73.4 °F - 71.6 °F 94% 29.91 in 5.0 mi West 6.9 mph - 0.00 in Rain Light Rain
11:55 AM 73.4 °F - 71.6 °F 94% 29.90 in 6.0 mi WSW 4.6 mph - 0.00 in Rain Light Rain
12:15 PM 73.4 °F - 71.6 °F 94% 29.90 in 9.0 mi Calm Calm - 0.00 in   Mostly Cloudy
12:35 PM 75.2 °F - 71.6 °F 89% 29.89 in 10.0 mi Calm Calm - 0.00 in   Scattered Clouds
12:55 PM 78.8 °F - 71.6 °F 78% 29.89 in 10.0 mi Calm Calm - 0.00 in   Partly Cloudy
1:15 PM 80.6 °F 84.6 °F 71.6 °F 74% 29.89 in 10.0 mi Calm Calm - 0.00 in   Scattered Clouds
1:35 PM 80.6 °F 83.9 °F 69.8 °F 70% 29.88 in 10.0 mi Calm Calm - 0.00 in   Mostly Cloudy
1:55 PM 82.4 °F 86.3 °F 69.8 °F 66% 29.89 in 10.0 mi Calm Calm - 0.00 in   Partly Cloudy
2:15 PM 84.2 °F 89.6 °F 71.6 °F 66% 29.88 in 10.0 mi Calm Calm - 0.00 in   Scattered Clouds
2:35 PM 86.0 °F 91.8 °F 71.6 °F 62% 29.88 in 10.0 mi Calm Calm - 0.00 in   Mostly Cloudy
2:55 PM 82.4 °F 87.2 °F 71.6 °F 70% 29.88 in 10.0 mi South 5.8 mph - 0.00 in   Mostly Cloudy
3:15 PM 80.6 °F 84.6 °F 71.6 °F 74% 29.88 in 10.0 mi SSE 6.9 mph - 0.00 in   Mostly Cloudy
3:35 PM 82.4 °F 87.2 °F 71.6 °F 70% 29.88 in 10.0 mi South 6.9 mph - 0.00 in   Scattered Clouds
3:55 PM 82.4 °F 87.2 °F 71.6 °F 70% 29.88 in 10.0 mi SSE 8.1 mph - 0.00 in   Clear
4:15 PM 80.6 °F 84.6 °F 71.6 °F 74% 29.88 in 10.0 mi South 9.2 mph - 0.00 in   Partly Cloudy
4:35 PM 84.2 °F 88.4 °F 69.8 °F 62% 29.87 in 10.0 mi South 10.4 mph - 0.00 in   Mostly Cloudy
4:55 PM 78.8 °F - 71.6 °F 78% 29.89 in 1.0 mi South 8.1 mph - 0.00 in   Haze
5:15 PM 78.8 °F - 71.6 °F 78% 29.89 in 10.0 mi SSW 8.1 mph - 0.00 in   Mostly Cloudy
5:35 PM 78.8 °F - 71.6 °F 78% 29.89 in 10.0 mi Calm Calm - 0.00 in   Scattered Clouds
5:55 PM 77.0 °F - 71.6 °F 83% 29.89 in 8.0 mi Calm Calm - 0.00 in   Light Drizzle
6:15 PM 78.8 °F - 71.6 °F 78% 29.89 in 9.0 mi SSW 5.8 mph - 0.00 in   Mostly Cloudy
6:35 PM 80.6 °F 84.6 °F 71.6 °F 74% 29.89 in 10.0 mi South 8.1 mph - 0.00 in   Mostly Cloudy
6:55 PM 78.8 °F - 71.6 °F 78% 29.89 in 10.0 mi Calm Calm - 0.00 in   Scattered Clouds
7:15 PM 78.8 °F - 71.6 °F 78% 29.90 in 10.0 mi SSW 6.9 mph - 0.00 in   Scattered Clouds
7:35 PM 77.0 °F - 71.6 °F 83% 29.90 in 10.0 mi Calm Calm - 0.00 in   Partly Cloudy
7:55 PM 78.8 °F - 71.6 °F 78% 29.90 in 10.0 mi SW 6.9 mph - 0.00 in   Clear
8:15 PM 78.8 °F - 71.6 °F 78% 29.89 in 10.0 mi SSW 6.9 mph - 0.00 in   Partly Cloudy
8:35 PM 77.0 °F - 71.6 °F 83% 29.90 in 10.0 mi Calm Calm - 0.00 in   Clear
8:55 PM 75.2 °F - 71.6 °F 89% 29.89 in 10.0 mi Calm Calm - 0.00 in   Clear
9:15 PM 75.2 °F - 71.6 °F 89% 29.90 in 10.0 mi Calm Calm - 0.00 in   Clear
9:35 PM 75.2 °F - 71.6 °F 89% 29.91 in 10.0 mi Calm Calm - 0.00 in   Clear
9:55 PM 75.2 °F - 73.4 °F 94% 29.91 in 10.0 mi Calm Calm - 0.00 in   Clear
10:15 PM 75.2 °F - 71.6 °F 89% 29.92 in 10.0 mi Calm Calm - 0.00 in   Clear
10:35 PM 75.2 °F - 73.4 °F 94% 29.93 in 10.0 mi Calm Calm - 0.00 in   Partly Cloudy
11:15 PM 77.0 °F - 73.4 °F 89% 29.95 in 10.0 mi Calm Calm - 0.00 in   Mostly Cloudy
11:35 PM 77.0 °F - 73.4 °F 89% 29.94 in 5.0 mi Calm Calm - 0.00 in   Overcast
11:55 PM 75.2 °F - 73.4 °F 94% 29.93 in 2.5 mi Calm Calm - 0.00 in Rain Rain